Dewpoint
53 53 53 52 52 52 52 51 50 50 50 49 49 49 49 49 48 48 49 50 50 50 50 51 51 47 32 14 7 12 36 29 16 20 18 21 13 17 14 12 19 15 15 16 18 16 13
54 53 53 53 53 52 52 52 51 50 50 50 50 50 50 49 49 50 50 50 50 50 51 51 50 48 25 12 9 13 13 14 16 17 17 18 15 13 11 12 15 17 16 15 16 14 10
53 53 53 53 53 53 53 52 51 51 50 50 50 50 50 50 50 50 50 50 50 50 47 45 47 19 16 12 11 15 14 17 17 17 18 18 20 20 16 13 13 16 17 13 12 13 11
53 53 53 53 52 52 52 52 51 51 51 50 50 50 50 50 50 50 49 49 49 51 47 46 44 28 16 18 15 16 13 17 16 17 21 18 23 18 13 9 8 10 12 20 11 13 15
52 52 52 52 52 52 52 52 52 51 51 51 51 51 49 49 50 48 47 47 49 48 47 45 30 30 18 25 16 16 15 15 17 20 25 6 25 21 21 19 17 15 17 15 15 13 12
51 51 51 51 51 52 52 52 51 51 51 52 52 51 49 49 50 49 46 44 47 45 34 13 15 29 19 14 19 18 17 17 19 21 28 28 23 21 12 18 20 14 12 13 13 12 11
51 50 51 50 51 51 51 52 52 51 50 51 51 51 49 49 50 49 45 39 36 35 22 18 16 22 15 17 22 21 19 18 22 22 15 20 18 10 6 7 9 13 16 17 19 10 11
49 50 50 50 51 51 51 51 52 51 50 51 51 50 48 47 48 48 42 30 29 33 23 22 18 17 15 20 21 22 18 22 24 18 21 22 12 8 11 12 11 12 17 22 16 12 9
49 49 49 50 51 51 52 52 52 52 50 51 50 49 47 47 46 40 30 28 33 34 33 24 18 18 18 21 21 20 17 21 17 19 19 18 10 10 11 12 9 18 14 11 10 11 15
49 50 50 51 52 52 53 53 52 52 50 50 50 48 47 47 43 32 28 30 33 37 36 28 23 23 20 26 27 20 19 22 22 19 19 14 10 11 13 9 6 17 11 11 11 15 18
50 50 51 52 52 53 53 53 52 52 51 50 49 46 46 46 36 29 30 31 33 38 35 30 25 24 23 24 23 24 20 24 20 17 23 22 13 11 16 10 8 14 12 10 10 15 14
50 50 51 52 52 53 53 53 53 52 51 50 48 45 47 39 37 32 35 35 39 44 28 28 27 23 25 25 24 23 25 25 23 23 20 15 14 16 13 12 11 11 18 14 11 14 17
50 51 51 52 52 53 53 53 53 52 51 49 47 43 38 31 35 36 37 39 42 33 29 25 24 23 23 21 24 22 22 21 25 30 28 23 14 15 16 19 14 18 21 24 22 21 22
50 51 52 52 53 53 53 53 53 53 52 48 46 43 40 31 36 38 42 40 29 27 25 23 22 22 23 19 23 23 29 23 20 24 28 26 24 19 15 20 16 20 17 21 10 18 17
51 51 52 53 53 53 53 53 53 53 52 48 45 43 42 39 36 40 41 38 31 25 22 21 25 23 25 22 20 26 24 24 20 22 25 24 25 14 13 12 17 23 22 9 15 13 11
52 52 53 53 53 53 53 54 54 53 53 47 44 43 44 40 37 43 42 32 27 21 17 20 24 22 25 26 26 26 27 26 22 20 17 21 21 17 13 16 13 16 18 19 18 13 13
52 53 53 54 54 54 54 54 54 54 52 46 47 43 43 40 40 43 40 27 25 16 20 22 23 25 27 20 21 24 27 23 19 14 17 23 21 22 17 19 18 13 15 14 16 17 13
53 54 54 55 54 54 54 55 55 54 50 46 46 41 46 42 42 38 33 27 24 21 19 21 21 24 24 20 24 23 23 22 21 19 21 20 22 19 23 15 15 17 20 18 19 13 13
54 55 55 55 55 55 55 55 55 54 50 44 45 42 48 44 42 33 25 24 23 21 20 20 21 20 18 19 23 27 21 19 17 16 20 23 23 20 23 18 16 12 14 12 12 12 12
55 55 55 55 55 55 55 55 55 54 52 45 47 45 43 40 36 37 32 28 25 23 21 19 18 17 17 17 18 22 21 18 15 15 19 21 20 21 23 24 22 17 15 10 10 11 13
56 56 56 56 56 56 56 56 55 55 53 47 44 36 33 37 34 32 32 31 27 25 21 18 19 18 23 24 20 16 18 16 16 16 18 20 16 17 18 19 20 21 21 10 8 15 13
56 57 57 57 57 57 56 56 55 55 52 46 47 43 41 33 29 30 33 34 29 27 25 23 19 25 20 25 28 27 20 21 20 14 18 19 16 15 12 18 18 18 17 19 16 16 16
57 56 55 54 54 54 54 54 55 55 52 47 40 39 43 42 33 34 38 32 29 30 30 26 22 24 22 22 17 15 15 16 16 16 17 19 16 14 15 17 18 15 17 17 14 13 11
53 53 53 52 52 52 52 53 53 55 50 42 41 44 37 39 37 37 36 32 32 31 32 23 20 23 21 15 15 14 14 14 14 15 18 19 15 16 13 16 9 21 21 18 17 16 19
51 51 51 51 51 51 52 52 52 53 50 42 38 39 37 37 37 38 39 36 32 30 27 24 21 18 17 18 22 26 18 15 14 12 13 14 14 13 11 13 18 20 18 17 13 14 19
47 47 47 48 49 49 49 50 50 51 51 44 39 42 39 35 37 40 35 33 34 33 29 24 20 22 19 26 27 27 27 28 21 11 11 11 12 13 14 14 14 20 15 17 18 15 25
45 44 44 44 44 45 45 46 47 48 50 48 44 42 40 34 38 34 35 36 33 33 34 27 24 20 17 27 27 26 26 22 24 18 9 11 11 10 11 15 16 19 12 16 15 19 24
44 44 44 44 44 44 44 44 44 45 47 48 43 42 42 35 38 36 36 35 32 34 34 29 30 26 23 26 27 26 25 24 23 23 16 21 17 13 15 16 11 17 13 17 25 25 26
40 40 41 42 42 42 43 43 44 44 44 49 45 41 44 39 39 38 35 34 37 37 36 29 33 29 30 31 31 31 28 26 26 25 25 26 27 25 20 18 22 18 22 26 26 25 25
Lifted_Index
11 11 11 12 12 12 12 12 13 13 14 14 14 14 14 14 14 14 14 14 13 13 13 13 13 13 11 9 11 15 17 16 15 13 11 10 9 8 7 6 6 6 7 8 9 9 9
11 11 11 12 12 12 12 12 12 13 13 13 13 14 14 14 14 14 14 13 13 13 13 14 13 12 10 9 13 16 16 15 14 13 12 10 9 8 7 7 7 7 7 7 8 9 9
11 11 11 11 11 12 12 12 12 12 12 12 12 13 13 13 13 13 13 13 13 13 13 13 13 11 9 10 14 16 16 15 14 14 12 12 11 9 8 8 7 7 6 7 8 8 8
11 12 12 11 11 11 11 11 11 11 11 10 11 11 12 12 13 13 13 13 13 13 13 13 12 10 10 12 14 15 14 14 14 14 14 13 12 10 8 8 7 6 6 5 7 8 8
12 12 12 12 11 11 11 10 10 10 10 10 10 10 11 11 12 12 12 12 12 12 12 12 11 10 10 11 12 13 13 13 13 14 13 13 11 9 8 6 5 5 4 4 6 7 7
13 13 13 12 12 11 10 10 10 9 9 9 9 9 10 10 11 11 12 11 11 11 10 10 9 9 9 10 11 11 12 12 11 11 11 10 9 7 7 6 5 4 4 5 5 6 7
13 13 13 12 12 11 11 10 10 9 9 9 9 9 9 10 10 11 11 10 9 8 8 8 8 8 9 9 10 10 10 10 9 8 8 7 6 6 6 6 6 6 5 5 6 6 6
13 13 13 12 12 12 11 10 10 9 9 9 9 9 9 9 10 10 10 9 9 8 7 7 8 8 8 9 8 9 9 8 7 6 6 6 6 6 7 7 7 6 6 5 6 6 6
14 14 13 13 13 12 11 11 11 10 9 9 9 9 9 9 10 9 9 9 10 10 7 7 7 7 8 8 7 7 8 7 6 6 6 6 6 7 7 7 7 6 6 6 6 6 6
14 14 14 13 13 13 12 12 12 11 11 10 9 9 9 9 8 8 9 11 12 10 7 6 7 7 7 7 7 7 7 7 6 5 6 6 6 7 7 7 7 7 7 7 6 5 4
13 13 13 13 13 13 13 13 13 13 12 11 10 9 9 8 8 8 10 12 11 7 4 5 7 7 7 7 7 7 7 7 6 6 5 6 6 6 7 7 7 7 8 7 7 5 4
13 13 13 13 13 13 13 13 13 13 13 13 11 10 9 8 8 9 10 10 7 4 3 4 6 6 6 6 6 7 7 7 6 5 5 5 6 7 7 7 8 8 7 6 6 4 3
13 13 13 13 13 13 12 12 13 13 14 14 12 10 9 8 8 9 9 7 4 3 3 4 5 5 5 5 6 6 6 6 6 5 5 5 5 6 7 7 8 8 6 4 3 2 2
12 12 12 12 12 12 12 12 12 12 13 13 12 11 9 9 8 8 6 4 2 3 4 5 5 5 4 5 5 5 5 5 6 6 5 5 5 6 7 7 7 7 6 4 2 2 2
12 12 12 12 12 11 11 11 11 11 12 13 12 10 9 8 8 6 4 3 3 4 5 5 4 4 4 4 5 5 5 5 6 6 6 5 5 6 7 7 7 6 6 5 4 3 2
11 11 11 11 11 10 10 9 9 10 11 12 11 10 9 8 7 5 4 3 4 5 6 5 4 4 4 4 5 5 5 5 6 6 7 6 5 5 6 6 6 6 6 5 5 3 2
11 11 10 10 10 9 8 7 7 8 10 11 10 8 8 8 7 5 4 4 6 7 7 6 5 5 4 4 5 5 5 5 6 7 7 7 6 5 5 5 5 5 5 5 4 3 2
10 10 10 9 9 8 7 6 6 6 8 9 8 7 8 7 6 5 5 6 7 7 7 7 6 6 5 5 5 5 5 5 6 7 7 7 6 5 4 5 6 5 5 5 5 4 4
9 9 9 8 8 7 6 6 5 5 6 7 7 7 7 7 6 6 6 6 7 7 7 7 6 5 5 5 4 4 5 6 7 7 8 8 6 4 4 5 6 6 5 6 5 5 4
8 8 8 7 7 7 6 5 5 5 6 6 7 7 7 7 6 6 6 6 6 6 6 6 5 5 4 4 4 4 5 6 7 7 8 8 6 4 4 4 5 5 6 6 6 5 4
7 7 7 7 7 6 6 5 5 5 5 6 6 6 6 6 6 6 6 6 6 6 5 5 5 5 5 5 5 5 5 6 6 7 7 7 6 5 5 5 5 6 6 6 5 5 5
7 7 7 7 6 6 6 6 6 6 5 5 6 6 6 5 6 6 5 5 5 5 5 5 5 5 5 5 5 5 5 6 6 6 6 6 6 6 6 6 6 6 6 6 6 5 5
7 7 7 6 6 6 6 6 6 6 6 6 6 6 6 6 6 5 5 5 5 5 5 5 5 5 5 5 6 6 6 6 7 6 6 6 6 6 6 6 6 6 6 6 6 6 6
7 7 7 6 6 6 6 7 7 7 6 6 6 6 6 6 6 5 5 5 5 5 5 5 5 6 6 6 6 6 6 7 7 7 7 6 6 6 5 5 5 6 7 7 6 6 6
6 7 7 7 7 7 7 7 7 7 7 6 6 6 5 5 5 5 5 5 5 5 4 5 5 6 7 6 6 6 6 7 7 7 7 7 6 6 5 4 5 6 7 7 7 6 6
7 7 7 7 7 8 8 8 8 8 8 7 6 6 6 5 5 5 5 5 5 5 5 5 5 6 6 6 5 5 6 7 7 7 7 6 6 6 5 4 5 6 7 7 7 6 7
8 8 9 9 10 10 11 11 12 11 11 9 8 7 7 6 6 6 6 5 5 5 5 5 6 6 6 6 6 6 7 7 7 7 6 6 6 6 5 5 5 6 7 7 6 7 7
12 12 13 13 14 15 15 15 15 15 13 12 10 10 10 9 8 8 7 7 6 6 6 6 6 6 6 6 6 7 7 7 7 7 6 6 5 5 5 5 5 6 6 6 7 7 8
15 16 16 17 17 17 16 16 16 16 15 13 12 12 12 12 11 10 9 8 7 6 6 7 7 6 6 6 7 7 7 7 7 6 6 6 5 5 5 5 5 5 6 6 7 7 8